Powrót do katalogu

STARLINK-30979

AktywnyŁącznośćVLEO
NORAD 58485·PAYLOAD·🇺🇸 United States

Wystrzelony Dec 3, 2023 z Cape Canaveral Space Force Station

Loading…

Następne Przeloty (najbliższe 24 godziny)

TLE

ŚwieżeSource: CelesTrak SupGP

Epoka: Sep 15, 2026, 02:49 UTC

1 58485C 23186N   26258.11784722 -.00013058  00000+0 -47285-3 0  2580
2 58485  42.9996  74.0521 0001486 272.5718 118.7386 15.27592210    10

Śledź STARLINK-30979 w czasie rzeczywistym z AllMySat

Download on the App Store